Home   Weather   Manama   Past weeks

Flag for Bahrain Past Weather in Manama, Bahrain — Yesterday and Last 2 Weeks

Now
61 °F

Sunny.


Feels Like: 61 °F
Forecast: 60 / 69 °F
Wind: 14 mph from Northwest

Location: Bahrain International Airport

Current Time: Dec 11, 2016 at 11:10:47 am

Latest Report: Dec 11, 2016 at 10:00 am


Visibility: 10 mi

Pressure: 30.12 "Hg

Humidity: 52%

Dew Point: 43 °F

Location of ManamaLocation

Past Weather in Manama — Graph

°F

Manama Temperature Yesterday

Maximum temperature yesterday: 68 °F (at 12:00 am)
Minimum temperature yesterday: 59 °F (at 11:00 pm)
Average temperature yesterday: 63 °F

High & Low Weather Summary for the Past Weeks

 TemperatureHumidityPressure
High86 °F (Dec 2, 2:00 pm)94% (Dec 6, 5:00 am)30.18 "Hg (Dec 6, 5:00 am)
Low57 °F (Dec 11, 5:00 am)24% (Dec 10, 12:00 pm)29.98 "Hg (Dec 2, 4:00 am)
Average72 °F71%30.08 "Hg
* Reported Nov 26 9:00 am — Dec 11 9:00 am, Manama, Weather by CustomWeather, © 2016

Note: Actual official high and low records may vary slightly from our data, if they occured in-between our weather recording intervals... More about our weather records

Advertising

Manama Weather History for the Previous 24 Hours

Scroll right to see more
 ConditionsComfort  
Time TempWeatherWind HumidityBarometerVisibility
9:00 am
Sun, Dec 11
59 °FSunny.14 mph51%30.12 "Hg10 mi
8:00 am59 °FSunny.14 mph51%30.12 "Hg10 mi
7:00 am57 °FSunny.12 mph55%30.12 "Hg10 mi
6:00 am57 °FClear.12 mph55%30.09 "Hg10 mi
5:00 am57 °FClear.12 mph51%30.09 "Hg10 mi
4:00 am59 °FClear.12 mph55%30.07 "Hg10 mi
3:00 am59 °FClear.15 mph55%30.07 "Hg10 mi
2:00 am59 °FPassing clouds.12 mph48%30.07 "HgN/A
1:00 am59 °FClear.14 mph42%30.09 "Hg10 mi
12:00 am59 °FPassing clouds.10 mph51%30.09 "HgN/A
11:00 pm
Sat, Dec 10
59 °FClear.13 mph55%30.09 "Hg10 mi
10:00 pm61 °FClear.13 mph55%30.09 "Hg10 mi
9:00 pm61 °FClear.14 mph59%30.09 "Hg10 mi
8:00 pm61 °FClear.17 mph63%30.09 "Hg10 mi
7:00 pm61 °FClear.18 mph63%30.09 "Hg10 mi
6:00 pm61 °FPassing clouds.21 mph59%30.09 "HgN/A
5:00 pm63 °FPassing clouds.24 mph56%30.09 "HgN/A
4:00 pm63 °FScattered clouds.24 mph56%30.07 "HgN/A
3:00 pm63 °FPassing clouds.23 mph52%30.07 "HgN/A
2:00 pm64 °FPassing clouds.25 mph43%30.09 "HgN/A
1:00 pm63 °FPassing clouds.22 mph37%30.09 "HgN/A
12:00 pm63 °FPassing clouds.23 mph24%30.12 "HgN/A
11:00 am63 °FPassing clouds.22 mph32%30.15 "HgN/A
Weather by CustomWeather, © 2016

See weather overviewHow to use our weather pages